Location: Bothwell
(42.3833°S, 147.0000°E)
Time: 21:44:57
(UTC+10:00)

CUTE 1.7 + AOD 2 - Pass Details

Date: 01 February 2023
Orbit: 584 x 601 km, 97.7° (Epoch: 02 April)

Event Time Altitude Azimuth Distance (km) Brightness Sun altitude
Exits shadow 02:49:22 - 76° (ENE) 2,014 ? -27.2°
Reaches altitude 10° 02:49:43 10° 80° (E) 1,927 ? -27.2°
Maximum altitude 02:52:11 16° 116° (ESE) 1,606 ? -27.0°
Drops below altitude 10° 02:54:40 10° 152° (SSE) 1,945 ? -26.8°
Sets 02:57:35 0° 174° (S) 2,860 ? -26.6°
